SCD 1 1 22490U 93009B 26036.16248788 .00000546 00000+0 98161-4 0 9992 2 22490 24.9700 302.7120 0041983 180.4762 331.6508 14.46047772741986 TECHSAT 1B (GO-32) 1 25397U 98043D 26035.93596891 .00000113 00000+0 68849-4 0 9999 2 25397 98.9983 25.4168 0000671 185.1041 175.0130 14.24396442432504 SCD 2 1 25504U 98060A 26035.67025787 .00000588 00000+0 11326-3 0 9993 2 25504 24.9937 169.3536 0016785 161.9851 220.7682 14.45461634441131 DLR-TUBSAT 1 25757U 99029B 26036.22893509 .00000193 00000+0 59189-4 0 9998 2 25757 98.6624 27.4415 0014871 35.2834 324.9342 14.52383809414090 TERRA 1 25994U 99068A 26036.25489681 .00000659 00000+0 14358-3 0 9994 2 25994 97.9661 90.9173 0000984 297.8745 137.2796 14.60978909390348 MAROC-TUBSAT 1 27004U 01056D 26035.99862708 -.00000024 00000+0 24922-4 0 9999 2 27004 99.7960 210.4036 0020513 120.5085 354.4591 13.70256289208085 AQUA 1 27424U 02022A 26036.17957208 .00001392 00000+0 28816-3 0 9993 2 27424 98.4118 2.9677 0001623 55.8395 33.7433 14.61893931263986 IRS-P6 (RESOURCESAT-1) 1 28051U 03046A 26036.27512265 .00000122 00000+0 54558-4 0 9991 2 28051 98.2101 79.1355 0064678 19.1716 70.1021 14.36096463161590 SHIYAN-1 (SY-1) 1 28220U 04012A 26036.17741271 .00019943 00000+0 68843-3 0 9995 2 28220 97.8837 105.9721 0007033 121.2713 238.9216 15.29980558190882 AURA 1 28376U 04026A 26036.23666577 .00001537 00000+0 32268-3 0 9996 2 28376 98.3260 351.7431 0001359 65.8921 294.2421 14.61079346146948 IRS-P5 (CARTOSAT-1) 1 28649U 05017A 26036.05930156 .00001929 00000+0 20220-3 0 9997 2 28649 97.5447 65.0589 0002404 111.4567 248.6908 14.90641131124133 SINAH 1 1 28893U 05043D 26036.29122523 .00000667 00000+0 13635-3 0 9994 2 28893 98.2637 170.0082 0013878 333.8140 26.2359 14.64035664 81223 EROS B 1 29079U 06014A 26036.44117569 .10323857 24814-5 96659-3 0 9993 2 29079 97.3218 161.9640 0013241 288.1922 71.7935 16.38462207 99468 RESURS-DK 1 1 29228U 06021A 26036.19867608 .00004449 00000+0 26059-3 0 9999 2 29228 69.9352 321.0559 0004902 208.4378 151.6521 15.12548417 82617 ARIRANG-2 (KOMPSAT-2) 1 29268U 06031A 26036.31364876 .00000291 00000+0 63270-4 0 9995 2 29268 97.8273 227.1322 0015389 128.4620 356.5548 14.64556906 42179 LAPAN-TUBSAT 1 29709U 07001A 26036.26507146 .00000903 00000+0 11043-3 0 9996 2 29709 98.1296 32.5607 0010821 254.4934 105.5085 14.85776541 31567 HAIYANG-1B 1 31113U 07010A 26035.92420277 .00000151 00000+0 73051-4 0 9992 2 31113 98.3378 22.9822 0012505 230.6386 129.3691 14.30988247981718 COSMO-SKYMED 1 1 31598U 07023A 26036.30020365 .00005312 00000+0 47535-3 0 9991 2 31598 97.8856 227.0804 0001115 74.7022 285.4322 14.96276931 10065 TERRASAR-X 1 31698U 07026A 26035.53300215 .00001680 00000+0 83194-4 0 9990 2 31698 97.4455 45.1290 0001898 79.8276 280.3172 15.19151583 33085 WORLDVIEW-1 (WV-1) 1 32060U 07041A 26036.20569835 .00012815 00000+0 53265-3 0 9998 2 32060 97.3810 157.8746 0001040 262.8102 97.3017 15.23929417 22773 YAOGAN-3 1 32289U 07055A 26036.34609943 .00004870 00000+0 50823-3 0 9995 2 32289 97.8307 67.4751 0001594 102.4104 257.7292 14.90191366986222 COSMO-SKYMED 2 1 32376U 07059A 26036.24546030 .00000894 00000+0 11881-3 0 9995 2 32376 97.8839 221.7551 0001547 83.6618 276.4772 14.82152668982455 RADARSAT-2 1 32382U 07061A 26036.28263186 .00000155 00000+0 76978-4 0 9996 2 32382 98.5804 45.0831 0001154 84.0300 276.1014 14.29979560947105 CARTOSAT-2A 1 32783U 08021A 26036.26852311 .00000801 00000+0 11499-3 0 9994 2 32783 97.7840 89.3673 0011776 173.4555 186.6812 14.79037788959300 HUANJING 1A (HJ-1A) 1 33320U 08041A 26036.26291691 .00002916 00000+0 35876-3 0 9996 2 33320 97.6593 27.3073 0018142 207.6742 152.3508 14.83611612938847 HUANJING 1B (HJ-1B) 1 33321U 08041B 26036.31041624 .00001312 00000+0 16615-3 0 9991 2 33321 97.6441 30.9046 0034992 256.2089 103.5230 14.83012771938868 GEOEYE 1 1 33331U 08042A 26036.23840343 .00000813 00000+0 16150-3 0 9998 2 33331 98.1269 111.8356 0004916 107.2181 252.9560 14.64724718930831 THEOS 1 33396U 08049A 26036.28600358 .00000326 00000+0 17284-3 0 9999 2 33396 98.5772 97.7442 0001133 84.2792 275.8514 14.20111538899247 COSMO-SKYMED 3 1 33412U 08054A 26036.29756319 .00003047 00000+0 21340-3 0 9995 2 33412 97.8431 252.6226 0016182 358.4636 1.6538 15.05934353937083 YAOGAN-4 1 33446U 08061A 26036.26428702 .00001525 00000+0 19450-3 0 9997 2 33446 97.9227 330.8493 0015296 136.0493 224.1940 14.82878166926119 GOSAT (IBUKI) 1 33492U 09002A 26036.27436753 .00001240 00000+0 22707-3 0 9993 2 33492 98.0774 149.1176 0001426 79.7843 280.3522 14.67544251912113 DEIMOS-1 1 35681U 09041A 26036.25579833 .00000690 00000+0 10952-3 0 9990 2 35681 97.7196 199.3406 0000195 135.0316 225.0910 14.75058222887435 DUBAISAT-1 1 35682U 09041B 26036.07562476 .00001879 00000+0 28786-3 0 9990 2 35682 97.9827 170.9734 0011405 131.0415 229.1782 14.74804519885628 OCEANSAT-2 1 35931U 09051A 26036.30687704 -.00000149 00000+0 -75795-4 0 9990 2 35931 98.2263 36.3833 0015691 248.5191 111.4303 13.99641635860881 WORLDVIEW-2 (WV-2) 1 35946U 09055A 26036.22956834 .00000239 00000+0 93746-4 0 9998 2 35946 98.4728 111.5534 0003011 249.8436 110.2427 14.37825901856688 SMOS 1 36036U 09059A 26036.28559076 .00000498 00000+0 17296-3 0 9998 2 36036 98.4406 225.5325 0001255 87.5236 272.6096 14.39733935854476 YAOGAN-7 1 36110U 09069A 26036.13553315 .00000897 00000+0 13151-3 0 9995 2 36110 98.0260 282.6885 0026016 104.1696 256.2408 14.77833857870127 TANDEM-X 1 36605U 10030A 26035.59886900 .00001650 00000+0 81727-4 0 9995 2 36605 97.4464 45.1947 0001906 97.9913 262.1538 15.19151798866510 CARTOSAT-2B 1 36795U 10035A 26036.31664417 .00001431 00000+0 20164-3 0 9992 2 36795 97.7765 88.5501 0010315 258.5438 101.4615 14.78735193840362 YAOGAN-10 1 36834U 10038A 26036.30117289 .00003704 00000+0 44186-3 0 9993 2 36834 97.9104 60.7133 0001517 95.8210 356.2093 14.84876133837635 COSMO-SKYMED 4 1 37216U 10060A 26036.32560346 -.00000038 00000+0 17736-5 0 9992 2 37216 97.8827 221.8337 0001282 84.6488 275.4871 14.82146247825030 RESOURCESAT-2 1 37387U 11015A 26036.26292022 -.00000086 00000+0 -19076-4 0 9990 2 37387 98.7790 104.5436 0005036 231.1713 128.9015 14.21455272767431 HAIYANG-2A 1 37781U 11043A 26036.27310171 -.00000024 00000+0 19468-4 0 9992 2 37781 99.3395 41.3722 0000900 9.5698 350.5471 13.78751095728504 RASAT 1 37791U 11044D 26036.30091730 .00000620 00000+0 11651-3 0 9991 2 37791 98.0598 129.7407 0019388 249.5244 203.6400 14.68006413773833 SRMSAT 1 37841U 11058D 26035.97710499 .00000490 00000+0 12221-3 0 9993 2 37841 19.9710 139.6915 0011594 188.9428 328.1612 14.11535060739116 PLEIADES 1A 1 38012U 11076F 26036.34420235 .00000629 00000+0 14494-3 0 9990 2 38012 98.1740 113.2493 0001270 104.5856 329.1632 14.58571442752772 ZIYUAN 1-02C (ZY 1-02C) 1 38038U 11079A 26036.30800255 .00000694 00000+0 24322-3 0 9994 2 38038 98.4241 106.2961 0006137 353.1176 95.0082 14.38088433740254 ARIRANG-3 (KOMPSAT-3) 1 38338U 12025B 26036.29701847 .00001225 00000+0 25379-3 0 9998 2 38338 98.1787 356.0353 0006312 155.6746 204.4754 14.61970751732074 EXACTVIEW-1 (ADS-1B) 1 38709U 12039C 26036.23337106 .00000231 00000+0 11863-3 0 9991 2 38709 98.9626 150.7666 0010835 186.6720 173.4316 14.24936835703917 SPOT 6 1 38755U 12047A 26036.27581537 .00000327 00000+0 80236-4 0 9991 2 38755 98.2287 105.0372 0001149 99.7419 260.3910 14.58514114713824 PLEIADES 1B 1 39019U 12068A 26036.29566428 .00000385 00000+0 92602-4 0 9996 2 39019 98.2077 113.1016 0001389 104.7937 255.3416 14.58554091701626 GOKTURK 2 1 39030U 12073A 26036.24596111 .00000467 00000+0 75831-4 0 9998 2 39030 97.6881 240.2197 0001998 72.2161 287.9267 14.75386153705058 LANDSAT 8 1 39084U 13008A 26036.24850083 .00000576 00000+0 13784-3 0 9996 2 39084 98.1983 108.4947 0001299 93.2747 266.8600 14.57116475678684 SARAL 1 39086U 13009A 26036.26866827 .00000177 00000+0 81021-4 0 9991 2 39086 98.5527 224.4927 0001399 352.9731 7.1433 14.32781343676717 GAOFEN-1 1 39150U 13018A 26036.32278659 .00001144 00000+0 17101-3 0 9992 2 39150 97.9241 110.9940 0016622 335.8616 24.1813 14.76549960688782 VNREDSAT 1 1 39160U 13021B 26036.33121976 .00000826 00000+0 16267-3 0 9995 2 39160 97.9282 94.6729 0001446 97.7558 262.3810 14.65025500680982 ARIRANG-5 (KOMPSAT-5) 1 39227U 13042A 26036.28012157 .00001386 00000+0 10338-3 0 9991 2 39227 97.6159 224.8127 0001842 209.7184 150.3938 15.04495720684020 SKYSAT-A 1 39418U 13066C 26036.08001996 .00004996 00000+0 29204-3 0 9998 2 39418 97.4018 89.6294 0023065 53.9456 306.3907 15.12098593668519 DUBAISAT-2 1 39419U 13066D 26036.23449369 .00007995 00000+0 50848-3 0 9996 2 39419 97.4501 29.9986 0013159 120.9250 239.3275 15.08996274666487 GPM-CORE 1 39574U 14009C 26035.61779446 .00010855 00000+0 23607-3 0 9991 2 39574 64.9742 32.1896 0010005 249.6895 110.3171 15.44687551677336 SENTINEL-1A 1 39634U 14016A 26036.29895529 .00000412 00000+0 97090-4 0 9998 2 39634 98.1807 45.7371 0001309 83.6643 276.4705 14.59199827630780 KAZEOSAT 1 1 39731U 14024A 26036.32739102 .00000196 00000+0 72711-4 0 9995 2 39731 98.3348 111.9884 0001056 93.3671 266.7639 14.42065212619555 ALOS-2 1 39766U 14029A 26036.25511683 .00000710 00000+0 10187-3 0 9992 2 39766 97.9220 135.3193 0001454 103.0058 257.1316 14.79484908632075 KAZEOSAT 2 1 40010U 14033A 26036.26346676 .00001372 00000+0 16555-3 0 9990 2 40010 97.5486 242.7623 0009707 41.9002 318.2956 14.85281442629371 HODOYOSHI-4 1 40011U 14033B 26036.29457935 .00001689 00000+0 18997-3 0 9998 2 40011 97.5428 227.5016 0024565 26.1157 334.1294 14.87723583629191 DEIMOS-2 1 40013U 14033D 26036.26494539 .00002253 00000+0 22059-3 0 9990 2 40013 97.6017 275.2655 0002184 71.0535 289.0922 14.93262008618033 HODOYOSHI-3 1 40015U 14033F 26036.20472870 .00001891 00000+0 22528-3 0 9998 2 40015 97.6249 204.6921 0034337 70.1962 290.2950 14.85038169628039 SPOT 7 1 40053U 14034A 26036.33449472 .00000648 00000+0 14205-3 0 9999 2 40053 98.0813 102.1314 0001087 86.9092 273.2233 14.60820829617887 SKYSAT-B 1 40072U 14037D 26035.83909683 .00002195 00000+0 24823-3 0 9998 2 40072 98.3685 347.4319 0005603 2.6931 357.4313 14.87584589626289 WORLDVIEW-3 (WV-3) 1 40115U 14048A 26036.29325006 .00001457 00000+0 17820-3 0 9999 2 40115 97.8695 112.9054 0002318 58.3612 301.7829 14.84756479622339 GAOFEN-2 1 40118U 14049A 26036.27705817 .00001328 00000+0 17954-3 0 9998 2 40118 98.0291 100.5200 0006277 307.9456 52.1188 14.80720346619713 YAOGAN-21 1 40143U 14053A 26036.31003066 .00010338 00000+0 42348-3 0 9999 2 40143 97.1674 82.2525 0008041 188.5386 171.5716 15.24438910634855 YAOGAN-22 1 40275U 14063A 26036.00877550 -.00000046 00000+0 15852-5 0 9997 2 40275 100.7476 185.2059 0006782 126.5893 233.5843 13.15525397542439 ASNARO 1 40298U 14070A 26036.26123882 .00015850 00000+0 74943-3 0 9992 2 40298 97.3570 115.8590 0004294 241.8109 118.2693 15.19461864623971 YAOGAN-24 1 40310U 14072A 26036.31067694 .00000648 00000+0 10133-3 0 9993 2 40310 98.1261 172.7059 0012604 331.4600 28.5917 14.76156238604261 CBERS 4 1 40336U 14079A 26036.30097789 -.00000140 00000+0 -34222-4 0 9990 2 40336 98.3094 97.4271 0001100 46.0946 314.0331 14.35521066585031 YAOGAN-26 1 40362U 14088A 26036.29995260 .00031670 00000+0 74965-3 0 9995 2 40362 97.0652 40.1202 0005899 143.3074 216.8579 15.41710056617347 SMAP 1 40376U 15003A 26036.25037292 .00000778 00000+0 15945-3 0 9994 2 40376 98.1303 45.1953 0001439 90.3052 269.8315 14.63433797588326 KOMPSAT-3A 1 40536U 15014A 26036.27024773 .00038071 00000+0 69737-3 0 9991 2 40536 97.6837 18.7422 0063306 298.2075 61.2790 15.46974002601375 SENTINEL-2A 1 40697U 15028A 26036.31965902 .00000272 00000+0 12049-3 0 9993 2 40697 98.5632 113.0945 0001104 97.1209 263.0099 14.30820552554876 GAOFEN-8 1 40701U 15030A 26036.29559565 .00025661 00000+0 62202-3 0 9998 2 40701 97.6914 222.1925 0009460 311.0321 49.0106 15.41012580591106 CARBONITE 1 (CBNT-1) 1 40718U 15032D 26036.30526572 .00002385 00000+0 29873-3 0 9997 2 40718 97.6428 219.9642 0014876 12.2219 347.9353 14.83056276569796 YAOGAN-27 1 40878U 15040A 26036.28426378 -.00000289 00000+0 -64924-3 0 9992 2 40878 100.1061 28.4494 0008372 154.9555 205.1966 13.16062408500312 GAOFEN-9 01 1 40894U 15047A 26036.26692758 .00001708 00000+0 21725-3 0 9999 2 40894 97.6472 77.8542 0026711 210.2891 149.6781 14.82598280560649 YAOGAN-28 1 41026U 15064A 26036.30152603 .00013236 00000+0 52558-3 0 9998 2 41026 97.2851 177.6060 0010021 300.9255 59.0998 15.25411433570564 YAOGAN-29 1 41038U 15069A 26036.33995718 .00000306 00000+0 44411-4 0 9995 2 41038 98.0172 64.6778 0002867 89.7296 270.4245 14.82956441551084 KENT RIDGE 1 1 41167U 15077B 26035.58131108 .00006034 00000+0 22287-3 0 9998 2 41167 14.9787 171.4905 0008579 169.1266 190.9242 15.22152960560858 GAOFEN-4 1 41194U 15083A 26036.29173007 -.00000337 00000+0 00000+0 0 9994 2 41194 0.3099 83.6757 0003197 88.0418 174.4227 1.00270312 37202 JASON-3 1 41240U 16002A 26036.27448392 -.00000061 00000+0 63921-5 0 9999 2 41240 66.0417 43.1690 0007964 274.9725 85.0385 12.87627185470267 SENTINEL-3A 1 41335U 16011A 26036.30219936 .00000185 00000+0 94588-4 0 9996 2 41335 98.6296 105.5499 0001120 105.7466 254.3838 14.26734289519255 ZIYUAN 3-02 (ZY 3-02) 1 41556U 16033A 26036.31298903 .00010822 00000+0 48873-3 0 9991 2 41556 97.3957 114.5506 0013745 54.7314 305.5206 15.21062537537939 CARTOSAT-2C 1 41599U 16040A 26036.33184086 .00003693 00000+0 17796-3 0 9992 2 41599 97.4673 97.9966 0009305 232.0994 127.9400 15.19324594533690 SKYSAT-C1 1 41601U 16040C 26036.02304068 .00012445 00000+0 38250-3 0 9999 2 41601 96.9751 74.9966 0004084 117.8766 242.2892 15.33812473537599 LAPAN-A3 1 41603U 16040E 26036.30626692 .00005775 00000+0 18844-3 0 9997 2 41603 97.1459 36.9053 0012159 122.7864 237.4551 15.32085707534619 GAOFEN-3 1 41727U 16049A 26036.33525110 .00000451 00000+0 15025-3 0 9993 2 41727 98.4042 46.0918 0001032 104.8699 255.2605 14.42208656499646 SKYSAT-C4 1 41771U 16058B 26035.81314652 .00018599 00000+0 40685-3 0 9993 2 41771 96.9323 63.4227 0002894 66.9416 293.2138 15.44184891525019 SKYSAT-C5 1 41772U 16058C 26036.08011455 .00012878 00000+0 38713-3 0 9992 2 41772 97.0673 82.5485 0005985 109.3633 250.8258 15.34503228523495 SKYSAT-C2 1 41773U 16058D 26035.81324608 .00014542 00000+0 38087-3 0 9994 2 41773 97.0313 63.0866 0004274 142.9467 217.2076 15.38787558524672 SKYSAT-C3 1 41774U 16058E 26036.09811125 .00026256 00000+0 52386-3 0 9994 2 41774 96.9223 72.3762 0002106 83.0103 277.1388 15.46826101525650 ALSAT-1B 1 41785U 16059C 26036.18236817 .00000336 00000+0 60857-4 0 9990 2 41785 97.7800 50.6227 0008030 296.0888 63.9493 14.72149027501155 PATHFINDER 1 1 41787U 16059E 26036.00172403 .00001144 00000+0 20932-3 0 9990 2 41787 97.8158 41.2674 0027081 267.7780 92.0325 14.67454221500323 SCATSAT 1 1 41790U 16059H 26036.11671173 .00001792 00000+0 24348-3 0 9998 2 41790 98.1372 98.4499 0054030 314.5797 45.1010 14.79153275 82065 GOKTURK 1A 1 41875U 16073A 26036.29465263 .00000836 00000+0 17299-3 0 9993 2 41875 98.1404 292.9244 0001324 79.7031 280.4320 14.62791028489541 RESOURCESAT-2A 1 41877U 16074A 26036.31475271 .00000463 00000+0 23135-3 0 9991 2 41877 98.7669 110.8321 0003162 101.9350 258.2182 14.21607923475561 CARTOSAT-2D 1 41948U 17008A 26036.43173551 .00007433 00000+0 35481-3 0 9998 2 41948 97.4296 98.0705 0004640 347.8741 12.2382 15.19335698497572 SENTINEL-2B 1 42063U 17013A 26036.31933729 .00000205 00000+0 94932-4 0 9998 2 42063 98.5631 112.9794 0001098 91.9637 268.1671 14.30819332465780 CARTOSAT-2E 1 42767U 17036C 26036.25094917 .00002900 00000+0 14101-3 0 9997 2 42767 97.4461 98.1013 0004413 48.3778 311.7834 15.19203321478115 FORMOSAT-5 1 42920U 17049A 26036.25791643 .00000351 00000+0 10019-3 0 9994 2 42920 98.2370 114.4572 0011992 126.9302 233.2993 14.50802929447542 SENTINEL-5P 1 42969U 17064A 26036.11114008 .00000108 00000+0 72438-4 0 9997 2 42969 98.7844 339.2309 0001180 84.4941 275.6369 14.19540658430829 SKYSAT-C11 1 42987U 17068A 26036.33685567 .00037553 00000+0 65937-3 0 9997 2 42987 97.4176 180.3067 0000718 69.5066 290.6262 15.50437371462767 SKYSAT-C10 1 42988U 17068B 26035.95035858 .00014425 00000+0 46897-3 0 9994 2 42988 97.4296 171.9352 0001955 92.1852 267.9613 15.32004550462095 SKYSAT-C9 1 42989U 17068C 26036.18892217 .00021255 00000+0 57319-3 0 9991 2 42989 97.4221 171.9474 0008296 250.1889 109.8462 15.37791407462444 SKYSAT-C8 1 42990U 17068D 26036.30852698 .00018778 00000+0 56416-3 0 9999 2 42990 97.4315 171.6144 0002862 112.7447 247.4098 15.34462865462070 SKYSAT-C7 1 42991U 17068E 26035.83494626 .00014266 00000+0 43843-3 0 9998 2 42991 97.4322 172.1330 0005878 211.3387 148.7506 15.33793422462062 SKYSAT-C6 1 42992U 17068F 26036.11818142 .00015230 00000+0 49257-3 0 9991 2 42992 97.4359 172.7800 0001807 176.2862 183.8393 15.32159952462085 CARTOSAT-2F 1 43111U 18004A 26036.28334041 .00005788 00000+0 27759-3 0 9995 2 43111 97.4227 98.0136 0001604 23.5138 336.6170 15.19279151447308 GAOFEN-1 02 1 43259U 18031A 26036.28071561 .00001579 00000+0 23457-3 0 9998 2 43259 98.0714 99.0657 0004268 71.7341 288.4332 14.76416390423238 GAOFEN-1 03 1 43260U 18031B 26036.32668977 .00001388 00000+0 20694-3 0 9996 2 43260 98.0705 98.9832 0004043 124.1371 236.0223 14.76439374423235 GAOFEN-1 04 1 43262U 18031D 26036.30239100 .00000941 00000+0 14267-3 0 9991 2 43262 98.0715 99.1342 0001763 112.7759 247.3637 14.76452960423225 SENTINEL-3B 1 43437U 18039A 26036.20520664 .00000188 00000+0 95857-4 0 9998 2 43437 98.6295 105.6011 0000678 73.3832 286.7423 14.26730464405304 GAOFEN-5 01 1 43461U 18043A 26035.91048821 .00000597 00000+0 13312-3 0 9996 2 43461 98.4406 4.8496 0002835 111.8692 248.2809 14.60484588412387 GAOFEN-6 1 43484U 18048A 26036.33647883 .00001071 00000+0 16031-3 0 9995 2 43484 97.7939 103.7475 0010936 239.7600 120.2528 14.76598983413932 GAOFEN-11 01 1 43585U 18063A 26036.30155662 .00025486 00000+0 43733-3 0 9995 2 43585 97.1468 103.8210 0006146 101.3246 258.8698 15.51140919419872 ICESAT-2 1 43613U 18070A 26036.28029140 .00004338 00000+0 15740-3 0 9993 2 43613 92.0001 255.4451 0000612 34.3003 325.8285 15.28296824412310 HYSIS 1 43719U 18096A 26036.32169735 .00001180 00000+0 16810-3 0 9999 2 43719 98.0008 104.0081 0001095 129.7289 230.4019 14.78669176387932 KAZSTSAT 1 43783U 18099AB 26036.32315099 .00002420 00000+0 20132-3 0 9999 2 43783 97.4488 74.1304 0009718 111.3431 248.8831 14.99544622391547 SAUDISAT 5A 1 43831U 18102A 26036.28019184 .00008968 00000+0 34604-3 0 9991 2 43831 97.3255 100.4225 0008656 236.2098 123.8317 15.26483193395544 SAUDISAT 5B 1 43833U 18102C 26036.32422788 .00009561 00000+0 36510-3 0 9994 2 43833 97.3350 103.3009 0009363 239.1801 120.8517 15.26806387395660 GAOFEN-10R 1 44622U 19066A 26036.31397825 .00002589 00000+0 32496-3 0 9995 2 44622 98.0353 349.0634 0005946 204.8430 155.2498 14.83033535342831 CARTOSAT-3 1 44804U 19081A 26036.29794029 .00003441 00000+0 16612-3 0 9998 2 44804 97.4492 100.1636 0012291 254.2981 105.6897 15.19274939343444 GAOFEN-12 01 1 44819U 19082A 26036.21029470 .00000790 00000+0 10917-3 0 9994 2 44819 97.8134 46.0668 0004032 80.2945 279.8723 14.80739315334567 CSG-1 1 44873U 19092A 26036.27076576 .00000963 00000+0 12751-3 0 9990 2 44873 97.8841 221.7810 0001226 87.3187 272.8167 14.82167634331935 NEMO-HD 1 46277U 20061F 26036.24029052 .00015448 00000+0 36739-3 0 9998 2 46277 97.2111 99.6677 0002241 118.3021 241.8453 15.41727632301636 SENTINEL-6A 1 46984U 20086A 26036.05909628 -.00000058 00000+0 11125-4 0 9990 2 46984 66.0410 49.4850 0007890 270.2485 89.7626 12.80929366243409 GAOFEN-12 02 1 48079U 21026A 26036.41011645 .00000800 00000+0 11231-3 0 9996 2 48079 97.9893 35.1673 0003715 314.4853 45.6054 14.80162100262269 PLEIADES NEO 3 1 48268U 21034A 26036.29471294 .00000250 00000+0 38422-4 0 9992 2 48268 97.8938 112.9543 0001258 89.4395 270.6962 14.81670684258128 PLEIADES NEO 4 1 49070U 21073E 26036.26092933 .00000063 00000+0 14615-4 0 9993 2 49070 97.8938 112.9168 0001338 91.9636 268.1731 14.81673809241836 LANDSAT 9 1 49260U 21088A 26036.14563674 .00000524 00000+0 12625-3 0 9992 2 49260 98.2005 108.4453 0001314 92.3678 267.7671 14.57112927231771 CSG-2 1 51444U 22008A 26036.30453971 -.00000061 00000+0 -11306-5 0 9993 2 51444 97.8827 221.8122 0001474 77.8898 282.2480 14.82160105217051 GAOFEN-12 03 1 52912U 22069A 26036.27600352 .00001500 00000+0 20615-3 0 9992 2 52912 97.8453 287.3616 0000981 112.2961 247.8355 14.79773212195103 SWOT 1 54754U 22173A 26036.22661094 .00000109 00000+0 75946-4 0 9991 2 54754 77.6082 213.4371 0000460 359.4279 0.6872 14.00172290160687 GAOFEN-12 04 1 57654U 23123A 26036.30769970 .00002079 00000+0 28228-3 0 9998 2 57654 97.9135 316.2486 0001632 90.5995 269.5404 14.79904476133123 PARS 1 1 59065U 24039Q 26036.25379565 .00017558 00000+0 40601-3 0 9991 2 59065 97.4708 13.4239 0008385 222.1551 137.9052 15.42519564108284 RESURS-P 4 1 59371U 24061A 26036.29977061 .00006215 00000+0 19968-3 0 9995 2 59371 97.2617 346.5529 0003068 101.1118 259.0469 15.32626358103564 LEGION 1 1 59625U 24081A 26036.28925526 .00007505 00000+0 38121-3 0 9992 2 59625 97.5128 115.4647 0006303 111.2074 248.9833 15.17158712 97547 LEGION 2 1 59626U 24081B 26036.25574015 .00006996 00000+0 35529-3 0 9995 2 59626 97.5131 115.5223 0008360 98.5094 261.7087 15.17177925 97548 ALOS-4 (DAICHI-4) 1 60182U 24123A 26036.27445781 .00005139 00000+0 69450-3 0 9998 2 60182 97.9216 135.3413 0001442 102.3468 257.7905 14.79470514 86379 LEGION 3 1 60452U 24146A 26036.25643778 .00007586 00000+0 40349-3 0 9991 2 60452 45.0021 17.8362 0011595 144.0289 216.1372 15.15774609 82004 LEGION 4 1 60453U 24146B 26036.25537486 .00007569 00000+0 40220-3 0 9999 2 60453 45.0021 109.6955 0012281 276.9110 83.0371 15.15802320 80857 SENTINEL-2C 1 60989U 24157A 26036.14457605 .00000168 00000+0 80685-4 0 9995 2 60989 98.5679 112.8292 0001092 78.1862 281.9444 14.30812489 74101 IONOSFERA-M 1 1 61735U 24199A 26036.26120532 .00000104 00000+0 66025-4 0 9992 2 61735 98.7366 270.6797 0001630 122.6685 237.4650 14.22728960108941 IONOSFERA-M 2 1 61736U 24199B 26036.29576118 .00000089 00000+0 59229-4 0 9991 2 61736 98.7365 270.6258 0001241 41.5310 318.5962 14.22731179112077 BIOMASS 1 63772U 25090A 26036.23314159 .00001832 00000+0 33551-3 0 9999 2 63772 98.0721 225.4489 0001243 88.8753 271.2593 14.66984217 41335 GOSAT-GW (IBUKI GW) 1 64694U 25141A 26036.25918266 .00001884 00000+0 34042-3 0 9994 2 64694 98.0475 335.7985 0001523 84.4720 275.6658 14.67558828 32491 IONOSFERA-M 3 1 64876U 25155A 26036.26572759 .00000131 00000+0 79647-4 0 9990 2 64876 98.5863 1.6110 0000542 182.6018 177.5157 14.21458150 27663 IONOSFERA-M 4 1 64877U 25155B 26036.30074617 .00000141 00000+0 83877-4 0 9997 2 64877 98.5862 1.5639 0000697 120.9828 239.1418 14.21459728 27660 MICROCARB 1 64899U 25156A 26036.16313770 .00000876 00000+0 14667-3 0 9997 2 64899 97.9944 115.6190 0015727 338.5644 21.4902 14.72166237 28544 CO3D 3 1 64900U 25156B 26036.27876912 .00014883 00000+0 68899-3 0 9993 2 64900 97.4332 116.8641 0000457 297.6245 62.4944 15.20215071 29494 CO3D 4 1 64901U 25156C 26036.27892577 .00007643 00000+0 35575-3 0 9990 2 64901 97.4334 116.8642 0001336 39.4409 320.6923 15.20207127 29498 CO3D 2 1 64902U 25156D 26036.24557712 .00009988 00000+0 46378-3 0 9994 2 64902 97.4332 116.7303 0000287 198.1050 162.0175 15.20211243 29489 CO3D 1 1 64903U 25156E 26036.24572753 .00008097 00000+0 37660-3 0 9991 2 64903 97.4332 116.7305 0000180 255.7277 104.3938 15.20215565 29482 SENTINEL-6B 1 66514U 25264A 26036.29367386 -.00000056 00000+0 22915-4 0 9996 2 66514 66.0411 49.1238 0008064 270.4316 89.5775 12.80930362 10275 CSG-3 1 67304U 26001A 26036.28345918 .00000453 00000+0 63457-4 0 9996 2 67304 97.8836 221.7933 0001262 88.7715 271.3643 14.82157129 4928